period_start,C,m1,H,J0,J1,J2,J3,J4,J5,JA,JB,JC,JD,JJ,JK,JN,#
2017-11-07 00:02:49,0.06,2.36,0.00,15.67,19.12,22.36,14.26,47.56,1012.71,2059.31,2692.36,2528.71,2887.86,600.17,608.91,36.01,0000 0000 0000 0000 000000
2017-11-07 00:07:50,0.06,2.37,0.00,15.67,19.12,22.37,14.23,47.34,1012.71,2059.67,2691.81,2528.05,2887.12,599.81,608.62,36.06,0000 0000 0000 0000 000000
2017-11-07 00:12:52,0.04,2.37,0.00,15.67,19.11,22.35,14.28,47.37,1012.71,2059.78,2690.99,2527.93,2886.74,600.14,608.85,36.11,0000 0000 0000 0000 000000
2017-11-07 00:17:53,0.06,2.37,0.00,15.67,19.09,22.36,14.27,47.50,1012.63,2059.77,2690.15,2527.18,2886.02,600.04,608.74,36.16,0000 0000 0000 0000 000000
2017-11-07 00:22:55,0.07,2.38,0.00,15.64,19.09,22.32,14.23,47.60,1012.38,2059.92,2689.30,2526.68,2885.23,599.79,608.46,36.21,0000 0000 0000 0000 000000
2017-11-07 00:27:56,0.05,2.38,0.00,15.63,19.09,22.34,14.34,47.67,1012.24,2059.97,2688.48,2526.01,2884.62,600.15,608.78,36.26,0000 0000 0000 0000 000000
2017-11-07 00:32:57,0.07,2.38,0.00,15.60,19.07,22.39,14.29,47.77,1012.23,2059.98,2687.43,2525.22,2883.70,600.24,608.76,36.31,0000 0000 0000 0000 000000
2017-11-07 00:37:59,0.03,2.38,0.00,15.59,19.07,22.35,14.28,47.75,1012.22,2059.98,2686.79,2524.79,2883.00,599.92,608.65,36.36,0000 0000 0000 0000 000000
2017-11-07 00:43:00,0.05,2.39,0.00,15.58,19.05,22.36,14.24,47.66,1012.22,2059.98,2685.94,2524.05,2882.23,599.74,608.45,36.41,0000 0000 0000 0000 000000
2017-11-07 00:48:02,0.06,2.39,0.00,15.57,19.04,22.38,14.20,47.69,1012.22,2059.99,2685.07,2523.50,2881.54,599.58,608.40,36.46,0000 0000 0000 0000 000000
2017-11-07 00:53:03,0.03,2.39,0.00,15.55,19.03,22.41,14.23,47.68,1012.22,2059.99,2684.19,2522.99,2880.94,600.09,608.76,36.51,0000 0000 0000 0000 000000
2017-11-07 00:58:05,0.06,2.40,0.00,15.51,19.02,22.37,14.34,47.58,1012.15,2059.99,2683.52,2522.31,2880.13,600.54,609.32,36.56,0000 0000 0000 0000 000000
2017-11-07 01:03:06,0.02,2.40,0.00,15.48,19.01,22.38,14.26,47.70,1012.05,2059.99,2682.76,2521.98,2879.72,600.17,608.98,36.61,0000 0000 0000 0000 000000
2017-11-07 01:08:07,0.05,2.40,0.00,15.47,18.99,22.38,14.30,47.66,1012.15,2059.99,2681.94,2521.26,2879.02,600.05,608.87,36.67,0000 0000 0000 0000 000000
2017-11-07 01:13:09,0.04,2.40,0.00,15.43,18.98,22.36,14.27,47.83,1012.05,2059.99,2681.10,2520.93,2878.50,600.12,609.08,36.72,0000 0000 0000 0000 000000
2017-11-07 01:18:10,0.06,2.41,0.00,15.43,18.97,22.41,14.30,47.88,1011.93,2059.99,2680.28,2520.11,2877.85,600.16,608.96,36.77,0000 0000 0000 0000 000000
2017-11-07 01:23:11,0.03,2.41,0.00,15.41,18.95,22.38,14.30,47.63,1012.02,2060.01,2679.63,2519.98,2877.07,600.18,608.99,36.82,0000 0000 0000 0000 000000
2017-11-07 01:28:13,0.04,2.41,0.00,15.37,18.94,22.36,14.23,47.54,1012.08,2060.01,2678.97,2519.30,2876.80,599.92,608.99,36.87,0000 0000 0000 0000 000000
2017-11-07 01:33:14,0.04,2.41,0.00,15.36,18.92,22.37,14.25,47.61,1011.93,2060.03,2678.13,2518.99,2876.04,599.72,608.73,36.92,0000 0000 0000 0000 000000
2017-11-07 01:38:16,0.06,2.41,0.00,15.34,18.91,22.32,14.35,47.84,1011.82,2060.06,2677.53,2518.30,2875.62,600.04,609.01,36.97,0000 0000 0000 0000 000000
2017-11-07 01:43:17,0.02,2.42,0.00,15.33,18.89,22.34,14.24,47.62,1011.74,2060.10,2676.85,2517.99,2875.01,599.64,608.66,37.02,0000 0000 0000 0000 000000
2017-11-07 01:48:18,0.08,2.42,0.00,15.32,18.88,22.29,14.32,47.71,1011.73,2060.28,2675.94,2517.36,2874.34,600.20,609.14,37.07,0000 0000 0000 0000 000000
2017-11-07 01:53:19,0.08,2.42,0.00,15.32,18.87,22.28,14.31,47.64,1011.73,2060.57,2675.07,2516.87,2873.51,600.03,609.04,37.12,0000 0000 0000 0000 000000
2017-11-07 01:58:21,0.08,2.43,0.00,15.31,18.85,22.26,14.31,47.63,1011.73,2060.79,2674.22,2516.09,2872.82,600.03,609.03,37.17,0000 0000 0000 0000 000000
2017-11-07 02:03:22,0.07,2.43,0.00,15.29,18.84,22.26,14.32,47.66,1011.73,2060.90,2673.25,2515.45,2872.04,600.06,609.04,37.22,0000 0000 0000 0000 000000
2017-11-07 02:08:24,0.05,2.44,0.00,15.28,18.82,22.26,14.28,47.66,1011.73,2060.94,2672.46,2514.98,2871.27,600.40,609.52,37.27,0000 0000 0000 0000 000000
2017-11-07 02:13:25,0.06,2.44,0.00,15.27,18.82,22.20,14.29,47.72,1011.73,2060.98,2671.73,2514.25,2870.56,600.01,609.09,37.32,0000 0000 0000 0000 000000
2017-11-07 02:18:26,0.02,2.44,0.00,15.24,18.79,22.24,14.31,47.65,1011.73,2060.98,2670.97,2513.78,2869.92,600.05,609.23,37.37,0000 0000 0000 0000 000000
2017-11-07 02:23:27,0.06,2.44,0.00,15.23,18.78,22.24,14.29,47.77,1011.73,2060.98,2670.11,2513.04,2869.09,600.12,609.26,37.42,0000 0000 0000 0000 000000
2017-11-07 02:28:28,0.03,2.44,0.00,15.23,18.77,22.21,14.25,47.91,1011.73,2060.99,2669.54,2512.88,2868.77,599.91,609.04,37.47,0000 0000 0000 0000 000000
2017-11-07 02:33:29,0.04,2.45,0.00,15.22,18.76,22.16,14.33,48.04,1011.73,2060.99,2668.86,2512.11,2868.04,600.21,609.37,37.53,0000 0000 0000 0000 000000
2017-11-07 02:38:30,0.04,2.45,0.00,15.20,18.74,22.22,14.28,47.92,1011.73,2060.99,2668.04,2511.89,2867.50,599.99,609.25,37.58,0000 0000 0000 0000 000000
2017-11-07 02:43:31,0.05,2.45,0.00,15.18,18.73,22.14,14.31,47.93,1011.73,2060.99,2667.26,2511.12,2866.96,600.19,609.39,37.63,0000 0000 0000 0000 000000
2017-11-07 02:48:33,0.04,2.45,0.00,15.18,18.72,22.17,14.33,47.93,1011.73,2060.99,2666.54,2510.90,2866.20,600.00,609.31,37.68,0000 0000 0000 0000 000000
2017-11-07 02:53:34,0.03,2.46,0.00,15.16,18.69,22.10,14.24,47.81,1011.73,2061.00,2665.94,2510.17,2865.91,599.67,608.98,37.73,0000 0000 0000 0000 000000
2017-11-07 02:58:36,0.04,2.46,0.00,15.14,18.69,22.08,14.37,47.90,1011.73,2061.03,2665.10,2509.99,2865.14,600.37,609.63,37.78,0000 0000 0000 0000 000000
2017-11-07 03:03:37,0.05,2.46,0.00,15.14,18.67,22.06,14.28,47.67,1011.73,2061.06,2664.49,2509.33,2864.89,600.24,609.59,37.83,0000 0000 0000 0000 000000
2017-11-07 03:08:38,0.04,2.46,0.00,15.13,18.66,22.09,14.29,47.81,1011.73,2061.23,2663.99,2509.01,2864.10,599.59,609.08,37.88,0000 0000 0000 0000 000000
2017-11-07 03:13:39,0.06,2.47,0.00,15.12,18.64,22.05,14.24,47.87,1011.73,2061.54,2663.31,2508.85,2863.92,599.82,609.25,37.93,0000 0000 0000 0000 000000
2017-11-07 03:18:41,0.06,2.47,0.00,15.10,18.63,21.98,14.20,47.88,1011.72,2061.65,2662.69,2508.10,2863.11,599.71,609.13,37.98,0000 0000 0000 0000 000000
2017-11-07 03:23:42,0.04,2.47,0.00,15.09,18.62,21.98,14.29,47.66,1011.69,2061.92,2662.02,2507.99,2862.85,600.24,609.57,38.03,0000 0000 0000 0000 000000
2017-11-07 03:28:44,0.07,2.48,0.00,15.08,18.60,21.97,14.25,47.64,1011.50,2061.94,2661.38,2507.43,2862.06,599.81,609.19,38.08,0000 0000 0000 0000 000000
2017-11-07 03:33:45,0.01,2.48,0.00,15.06,18.59,21.94,14.36,47.77,1011.49,2061.98,2660.87,2507.02,2861.85,600.34,609.72,38.13,0000 0000 0000 0000 000000
2017-11-07 03:38:46,0.05,2.48,0.00,15.04,18.57,22.01,14.27,47.67,1011.36,2061.96,2660.06,2506.57,2861.05,600.22,609.54,38.18,0000 0000 0000 0000 000000
2017-11-07 03:43:48,0.04,2.48,0.00,15.04,18.57,21.99,14.35,47.71,1011.40,2061.98,2659.41,2506.02,2860.62,599.98,609.34,38.23,0000 0000 0000 0000 000000
2017-11-07 03:48:49,0.03,2.48,0.00,15.04,18.56,21.98,14.33,47.70,1011.42,2061.98,2658.83,2505.78,2860.00,600.05,609.23,38.28,0000 0000 0000 0000 000000
2017-11-07 03:53:50,0.05,2.49,0.00,15.02,18.54,21.94,14.31,47.81,1011.33,2061.99,2658.03,2505.06,2859.42,600.27,609.62,38.33,0000 0000 0000 0000 000000
2017-11-07 03:58:52,0.02,2.49,0.00,15.02,18.53,21.91,14.25,47.68,1011.52,2061.99,2657.35,2504.95,2858.98,599.74,609.23,38.38,0000 0000 0000 0000 000000
2017-11-07 04:03:53,0.06,2.49,0.00,15.02,18.52,21.97,14.35,47.75,1011.50,2061.99,2656.78,2504.29,2858.25,600.25,609.71,38.43,0000 0000 0000 0000 000000
2017-11-07 04:08:54,0.02,2.49,0.00,15.00,18.51,21.91,14.39,47.77,1011.49,2061.99,2656.02,2503.98,2857.83,599.88,609.48,38.49,0000 0000 0000 0000 000000
2017-11-07 04:13:56,0.06,2.50,0.00,14.99,18.49,21.83,14.28,47.73,1011.49,2061.99,2655.28,2503.44,2857.07,600.09,609.51,38.54,0000 0000 0000 0000 000000
2017-11-07 04:18:57,0.03,2.50,0.00,15.00,18.49,21.83,14.24,47.76,1011.41,2062.00,2654.65,2503.01,2856.77,599.87,609.40,38.59,0000 0000 0000 0000 000000
2017-11-07 04:23:59,0.03,2.50,0.00,14.99,18.47,21.76,14.29,47.88,1011.32,2062.00,2654.02,2502.79,2856.05,600.04,609.39,38.64,0000 0000 0000 0000 000000
2017-11-07 04:29:00,0.05,2.50,0.00,14.98,18.46,21.78,14.28,47.87,1011.39,2062.02,2653.38,2502.08,2855.81,599.89,609.34,38.69,0000 0000 0000 0000 000000
2017-11-07 04:34:01,0.02,2.50,0.00,14.95,18.44,21.81,14.31,47.89,1011.43,2062.03,2652.77,2501.98,2855.05,600.16,609.72,38.74,0000 0000 0000 0000 000000
2017-11-07 04:39:02,0.06,2.51,0.00,14.93,18.43,21.79,14.37,47.83,1011.48,2062.05,2652.02,2501.26,2854.69,600.21,609.80,38.79,0000 0000 0000 0000 000000
2017-11-07 04:44:04,0.03,2.51,0.00,14.92,18.42,21.75,14.25,47.93,1011.50,2062.06,2651.22,2500.98,2854.02,599.93,609.62,38.84,0000 0000 0000 0000 000000
2017-11-07 04:49:05,0.08,2.51,0.00,14.92,18.41,21.79,14.27,48.00,1011.40,2062.12,2650.54,2500.29,2853.37,599.91,609.53,38.89,0000 0000 0000 0000 000000
2017-11-07 04:54:07,0.02,2.51,0.00,14.90,18.39,21.76,14.33,47.92,1011.37,2062.29,2649.92,2500.00,2852.94,599.74,609.37,38.94,0000 0000 0000 0000 000000
2017-11-07 04:59:08,0.09,2.52,0.00,14.89,18.39,21.72,14.27,47.67,1011.34,2062.45,2649.07,2499.42,2852.16,599.93,609.46,38.99,0000 0000 0000 0000 000000
2017-11-07 05:04:09,0.07,2.52,0.00,14.89,18.37,21.79,14.28,47.73,1011.35,2062.71,2648.26,2498.98,2851.65,600.18,609.78,39.04,0000 0000 0000 0000 000000
2017-11-07 05:09:10,0.06,2.52,0.00,14.87,18.37,21.75,14.25,47.73,1011.26,2062.94,2647.80,2498.42,2851.01,599.56,609.28,39.09,0000 0000 0000 0000 000000
2017-11-07 05:14:12,0.04,2.53,0.00,14.85,18.34,21.72,14.32,47.59,1011.26,2062.94,2647.01,2498.00,2850.34,600.25,609.92,39.14,0000 0000 0000 0000 000000
2017-11-07 05:19:13,0.04,2.53,0.00,14.84,18.34,21.67,14.26,47.66,1011.25,2062.98,2646.16,2497.54,2849.98,599.86,609.48,39.19,0000 0000 0000 0000 000000
2017-11-07 05:24:14,0.04,2.53,0.00,14.82,18.32,21.69,14.30,47.66,1011.25,2062.96,2645.59,2497.03,2849.24,600.42,610.11,39.24,0000 0000 0000 0000 000000
2017-11-07 05:29:16,0.02,2.53,0.00,14.80,18.32,21.66,14.32,47.70,1011.25,2062.99,2644.99,2496.83,2848.93,600.18,609.98,39.29,0000 0000 0000 0000 000000
2017-11-07 05:34:17,0.06,2.54,0.00,14.79,18.30,21.65,14.31,47.85,1011.25,2062.98,2644.16,2496.05,2848.10,599.68,609.48,39.34,0000 0000 0000 0000 000000
2017-11-07 05:39:18,0.07,2.54,0.00,14.78,18.29,21.64,14.26,47.88,1011.17,2062.98,2643.27,2495.43,2847.22,600.28,610.22,39.40,0000 0000 0000 0000 000000
2017-11-07 05:44:19,0.04,2.54,0.00,14.78,18.27,21.68,14.24,47.87,1011.05,2062.99,2642.54,2494.91,2846.53,599.50,609.20,39.45,0000 0000 0000 0000 000000
2017-11-07 05:49:21,0.08,2.55,0.00,14.76,18.27,21.65,14.34,48.13,1010.82,2062.99,2641.46,2493.98,2845.40,600.18,609.78,39.50,0000 0000 0000 0000 000000
2017-11-07 05:54:22,0.08,2.55,0.00,14.73,18.24,21.68,14.33,48.02,1010.96,2062.99,2640.29,2493.08,2844.21,600.12,609.85,39.55,0000 0000 0000 0000 000000
2017-11-07 05:59:24,0.06,2.55,0.00,14.71,18.23,21.69,14.33,48.04,1011.06,2062.99,2639.41,2492.47,2843.49,599.98,609.76,39.60,0000 0000 0000 0000 000000
2017-11-07 06:04:25,0.03,2.56,0.00,14.68,18.22,21.69,14.43,47.88,1011.05,2062.99,2638.54,2491.99,2842.95,600.60,610.52,39.65,0000 0000 0000 0000 000000
2017-11-07 06:09:26,0.06,2.56,0.00,14.66,18.20,21.66,14.30,48.02,1010.98,2062.99,2637.81,2491.40,2842.13,599.88,609.74,39.70,0000 0000 0000 0000 000000
2017-11-07 06:14:27,0.03,2.56,0.00,14.64,18.19,21.61,14.31,47.95,1011.04,2063.01,2637.03,2490.99,2841.73,599.73,609.87,39.75,0000 0000 0000 0000 000000
2017-11-07 06:19:28,0.05,2.56,0.00,14.60,18.17,21.68,14.30,47.97,1011.07,2063.01,2636.41,2490.60,2841.04,599.57,609.68,39.80,0000 0000 0000 0000 000000
2017-11-07 06:24:30,0.03,2.56,0.00,14.57,18.15,21.68,14.30,48.00,1011.12,2063.03,2635.76,2490.01,2840.57,599.74,609.91,39.85,0000 0000 0000 0000 000000
2017-11-07 06:29:31,0.04,2.57,0.00,14.57,18.14,21.61,14.32,47.99,1011.01,2063.05,2634.92,2489.63,2839.99,600.09,610.30,39.90,0000 0000 0000 0000 000000
2017-11-07 06:34:32,0.07,2.57,0.00,14.56,18.12,21.60,14.28,47.98,1011.01,2063.22,2634.06,2489.02,2839.25,599.49,609.76,39.95,0000 0000 0000 0000 000000
2017-11-07 06:39:34,0.09,2.57,0.00,14.55,18.10,21.54,14.31,47.94,1010.95,2063.63,2633.23,2488.75,2838.89,599.90,610.02,40.00,0000 0000 0000 0000 000000
2017-11-07 06:44:35,0.07,2.58,0.00,14.54,18.08,21.57,14.26,47.88,1010.78,2063.90,2632.44,2488.03,2838.04,599.67,609.76,40.05,0000 0000 0000 0000 000000
2017-11-07 06:49:37,0.17,2.59,0.00,14.52,18.07,21.52,14.31,47.92,1010.77,2063.97,2630.46,2486.43,2836.16,600.44,610.51,40.10,0000 0000 0000 0000 000000
2017-11-07 06:54:38,0.06,2.59,0.00,14.51,18.05,21.54,14.29,47.99,1010.78,2063.97,2629.09,2485.13,2835.03,600.29,610.38,40.15,0000 0000 0000 0000 000000
2017-11-07 06:59:39,0.05,2.59,0.00,14.51,18.04,21.52,14.32,48.24,1010.76,2063.97,2628.37,2484.76,2834.32,600.03,610.06,40.20,0000 0000 0000 0000 000000
2017-11-07 07:04:40,0.08,2.60,0.00,14.50,18.02,21.47,14.34,48.23,1010.75,2063.99,2627.50,2483.84,2833.45,600.19,610.37,40.25,0000 0000 0000 0000 000000
2017-11-07 07:09:42,0.11,2.60,0.00,14.46,18.00,21.46,14.40,48.38,1010.75,2063.99,2626.11,2482.57,2831.85,599.94,610.09,40.30,0000 0000 0000 0000 000000
2017-11-07 07:14:43,0.09,2.61,0.00,14.44,17.99,21.43,14.31,48.23,1010.75,2063.99,2624.81,2481.64,2830.61,599.73,609.96,40.35,0000 0000 0000 0000 000000
2017-11-07 07:19:44,0.05,2.61,0.00,14.41,17.97,21.44,14.29,48.34,1010.72,2063.99,2623.79,2480.96,2829.59,599.19,609.55,40.41,0000 0000 0000 0000 000000
2017-11-07 07:24:46,0.06,2.62,0.00,14.40,17.96,21.46,14.35,48.24,1010.75,2064.01,2622.96,2480.14,2828.72,600.27,610.56,40.46,0000 0000 0000 0000 000000
2017-11-07 07:29:47,0.07,2.62,0.00,14.37,17.94,21.44,14.34,48.25,1010.75,2064.01,2622.03,2479.29,2827.75,599.89,610.28,40.51,0000 0000 0000 0000 000000
2017-11-07 07:34:48,0.07,2.62,0.00,14.36,17.92,21.40,14.33,48.26,1010.57,2064.04,2621.03,2478.56,2826.85,600.07,610.48,40.56,0000 0000 0000 0000 000000
2017-11-07 07:39:49,0.10,2.63,0.00,14.34,17.91,21.38,14.29,48.29,1010.40,2064.06,2619.84,2477.58,2825.65,599.81,610.18,40.61,0000 0000 0000 0000 000000
2017-11-07 07:44:51,0.09,2.63,0.00,14.32,17.89,21.35,14.39,48.21,1010.29,2064.10,2618.60,2476.57,2824.44,600.16,610.34,40.66,0000 0000 0000 0000 000000
2017-11-07 07:49:52,0.11,2.64,0.00,14.29,17.87,21.36,14.34,48.14,1010.36,2064.25,2617.33,2475.43,2823.23,600.08,610.44,40.71,0000 0000 0000 0000 000000
2017-11-07 07:54:53,0.09,2.64,0.00,14.26,17.85,21.32,14.28,48.16,1010.44,2064.60,2616.32,2474.89,2822.20,599.89,610.23,40.76,0000 0000 0000 0000 000000
2017-11-07 07:59:54,0.13,2.65,0.00,14.24,17.84,21.30,14.35,48.17,1010.32,2064.93,2615.07,2473.71,2821.03,600.37,610.65,40.81,0000 0000 0000 0000 000000
2017-11-07 08:04:56,0.08,2.65,0.00,14.21,17.82,21.31,14.35,48.33,1010.31,2064.97,2613.83,2472.75,2819.79,600.12,610.56,40.86,0000 0000 0000 0000 000000
2017-11-07 08:09:57,0.08,2.66,0.00,14.18,17.80,21.31,14.35,48.20,1010.30,2064.96,2612.64,2471.82,2818.65,600.08,610.58,40.91,0000 0000 0000 0000 000000
2017-11-07 08:14:58,0.11,2.66,0.00,14.15,17.78,21.32,14.32,48.15,1010.30,2064.99,2611.15,2470.64,2817.20,599.79,610.63,40.96,0000 0000 0000 0000 000000
2017-11-07 08:20:00,0.12,2.67,0.00,14.12,17.76,21.30,14.35,48.13,1010.28,2064.99,2609.59,2469.30,2815.65,600.32,610.95,41.01,0000 0000 0000 0000 000000
2017-11-07 08:25:01,0.12,2.68,0.00,14.11,17.74,21.27,14.33,48.23,1010.27,2064.99,2608.09,2467.88,2814.06,599.56,610.15,41.06,0000 0000 0000 0000 000000
2017-11-07 08:30:02,0.08,2.68,0.00,14.09,17.72,21.24,14.34,48.31,1010.27,2065.01,2606.86,2466.90,2812.74,600.08,610.78,41.11,0000 0000 0000 0000 000000
2017-11-07 08:35:03,0.07,2.68,0.00,14.08,17.69,21.20,14.39,48.17,1010.28,2065.01,2605.81,2466.06,2811.78,600.04,610.87,41.16,0000 0000 0000 0000 000000
2017-11-07 08:40:05,0.07,2.69,0.00,14.05,17.68,21.20,14.39,48.18,1010.28,2065.03,2604.87,2465.28,2810.84,600.06,610.89,41.21,0000 0000 0000 0000 000000
2017-11-07 08:45:06,0.07,2.69,0.00,14.03,17.65,21.16,14.28,48.10,1010.28,2065.11,2603.91,2464.68,2810.01,599.62,610.43,41.26,0000 0000 0000 0000 000000
2017-11-07 08:50:07,0.08,2.70,0.00,14.01,17.63,21.16,14.30,48.14,1010.29,2065.34,2603.04,2464.02,2809.12,599.55,610.28,41.31,0000 0000 0000 0000 000000
2017-11-07 08:55:08,0.10,2.70,0.00,13.98,17.61,21.12,14.32,48.13,1010.27,2065.62,2602.16,2463.59,2808.52,600.31,611.14,41.36,0000 0000 0000 0000 000000
2017-11-07 09:00:09,0.08,2.71,0.00,13.97,17.59,21.10,14.35,48.15,1010.22,2065.91,2601.13,2462.79,2807.61,600.15,611.05,41.42,0000 0000 0000 0000 000000
2017-11-07 09:05:10,0.05,2.71,0.00,13.97,17.57,21.07,14.35,48.17,1010.18,2065.94,2600.13,2462.05,2806.74,600.21,611.11,41.47,0000 0000 0000 0000 000000
2017-11-07 09:10:12,0.07,2.71,0.00,13.95,17.54,21.07,14.34,48.28,1010.25,2065.96,2599.22,2461.40,2805.94,599.56,610.51,41.52,0000 0000 0000 0000 000000
2017-11-07 09:15:13,0.05,2.72,0.00,13.94,17.53,21.02,14.34,48.15,1010.27,2065.98,2598.31,2460.96,2805.09,599.64,610.74,41.57,0000 0000 0000 0000 000000
2017-11-07 09:20:15,0.07,2.72,0.00,13.93,17.51,20.97,14.47,48.27,1010.27,2065.99,2597.51,2460.23,2804.45,600.30,611.33,41.62,0000 0000 0000 0000 000000
2017-11-07 09:25:16,0.06,2.72,0.00,13.91,17.49,21.00,14.40,48.15,1010.09,2066.00,2596.51,2459.63,2803.63,600.32,611.27,41.67,0000 0000 0000 0000 000000
2017-11-07 09:30:17,0.08,2.73,0.00,13.90,17.47,20.99,14.35,48.29,1010.02,2066.01,2595.20,2458.70,2802.43,599.99,610.83,41.72,0000 0000 0000 0000 000000
2017-11-07 09:35:19,0.08,2.73,0.00,13.86,17.45,20.87,14.35,48.35,1009.98,2066.05,2594.00,2457.73,2801.26,600.01,611.13,41.77,0000 0000 0000 0000 000000
2017-11-07 09:40:20,0.10,2.74,0.00,13.84,17.43,20.91,14.41,48.26,1009.92,2066.05,2592.74,2456.70,2800.16,600.19,611.20,41.82,0000 0000 0000 0000 000000
2017-11-07 09:45:21,0.14,2.74,0.00,13.82,17.42,20.95,14.41,48.40,1010.06,2066.27,2591.32,2455.55,2798.76,600.05,611.18,41.87,0000 0000 0000 0000 000000
2017-11-07 09:50:23,0.10,2.75,0.00,13.79,17.39,20.92,14.33,48.27,1010.07,2066.53,2589.95,2454.49,2797.47,600.00,611.12,41.92,0000 0000 0000 0000 000000
2017-11-07 09:55:24,0.14,2.76,0.00,13.78,17.38,20.88,14.38,48.38,1010.00,2066.70,2588.40,2453.20,2795.87,600.57,611.67,41.97,0000 0000 0000 0000 000000
2017-11-07 10:00:26,0.09,2.76,0.00,13.76,17.36,20.86,14.38,48.47,1010.12,2066.93,2587.24,2452.14,2794.65,599.86,611.12,42.02,0000 0000 0000 0000 000000
2017-11-07 10:05:27,0.10,2.77,0.00,13.75,17.34,20.86,14.45,48.58,1009.84,2066.97,2585.83,2451.20,2793.41,600.42,611.61,42.07,0000 0000 0000 0000 000000
2017-11-07 10:10:28,0.08,2.77,0.00,13.72,17.32,20.84,14.42,48.48,1009.81,2066.98,2584.51,2449.99,2792.02,599.98,611.11,42.12,0000 0000 0000 0000 000000
2017-11-07 10:15:29,0.09,2.78,0.00,13.69,17.30,20.81,14.41,48.52,1009.80,2066.99,2583.29,2448.93,2790.72,600.08,611.33,42.17,0000 0000 0000 0000 000000
2017-11-07 10:20:31,0.16,2.78,0.00,13.66,17.28,20.84,14.33,48.48,1009.79,2066.99,2581.55,2447.39,2788.72,600.12,611.43,42.22,0000 0000 0000 0000 000000
2017-11-07 10:25:32,0.11,2.79,0.00,13.64,17.27,20.79,14.46,48.50,1009.80,2066.99,2579.78,2445.96,2787.22,600.18,611.48,42.27,0000 0000 0000 0000 000000
2017-11-07 10:30:33,0.11,2.80,0.00,13.63,17.24,20.77,14.31,48.52,1009.77,2066.99,2578.28,2444.81,2785.74,599.61,610.90,42.33,0000 0000 0000 0000 000000
2017-11-07 10:35:35,0.12,2.80,0.00,13.59,17.23,20.75,14.38,48.35,1009.71,2067.01,2576.60,2443.45,2784.08,599.76,611.16,42.38,0000 0000 0000 0000 000000
2017-11-07 10:40:36,0.11,2.81,0.00,13.58,17.21,20.73,14.33,48.48,1009.56,2067.04,2575.09,2442.36,2782.59,600.00,611.41,42.43,0000 0000 0000 0000 000000
2017-11-07 10:45:38,0.12,2.81,0.00,13.55,17.19,20.73,14.43,48.47,1009.49,2067.15,2573.62,2441.09,2781.04,600.02,611.28,42.48,0000 0000 0000 0000 000000
2017-11-07 10:50:39,0.14,2.82,0.00,13.53,17.17,20.69,14.42,48.33,1009.72,2067.38,2572.09,2439.90,2779.51,600.18,611.78,42.53,0000 0000 0000 0000 000000
2017-11-07 10:55:41,0.11,2.83,0.00,13.51,17.14,20.68,14.42,48.53,1009.59,2067.65,2570.86,2438.87,2778.38,599.97,611.50,42.58,0000 0000 0000 0000 000000
2017-11-07 11:00:42,0.11,2.83,0.00,13.49,17.13,20.66,14.32,48.38,1009.62,2067.89,2569.54,2437.87,2777.08,599.70,611.24,42.63,0000 0000 0000 0000 000000
2017-11-07 11:05:43,0.09,2.84,0.00,13.46,17.11,20.64,14.41,48.41,1009.67,2067.95,2568.11,2436.86,2775.85,600.24,611.85,42.68,0000 0000 0000 0000 000000
2017-11-07 11:10:45,0.12,2.84,0.00,13.44,17.09,20.59,14.34,48.26,1009.61,2067.97,2566.64,2435.70,2774.51,599.93,611.60,42.73,0000 0000 0000 0000 000000
2017-11-07 11:15:46,0.10,2.85,0.00,13.43,17.07,20.60,14.37,48.55,1009.53,2067.99,2565.15,2434.63,2773.07,599.80,611.55,42.78,0000 0000 0000 0000 000000
2017-11-07 11:20:48,0.10,2.85,0.00,13.41,17.04,20.57,14.43,48.48,1009.58,2067.99,2563.79,2433.64,2771.78,600.12,611.90,42.83,0000 0000 0000 0000 000000
2017-11-07 11:25:49,0.11,2.86,0.00,13.39,17.03,20.54,14.36,48.36,1009.59,2067.99,2562.24,2432.30,2770.26,599.67,611.27,42.88,0000 0000 0000 0000 000000
2017-11-07 11:30:51,0.10,2.87,0.00,13.38,17.01,20.53,14.38,48.47,1009.65,2068.01,2560.79,2431.33,2768.85,599.96,611.79,42.93,0000 0000 0000 0000 000000
2017-11-07 11:35:52,0.11,2.87,0.00,13.36,16.99,20.53,14.38,48.55,1009.46,2068.03,2559.35,2430.07,2767.38,599.71,611.47,42.98,0000 0000 0000 0000 000000
2017-11-07 11:40:53,0.13,2.88,0.00,13.34,16.97,20.50,14.37,48.65,1009.36,2068.06,2557.85,2428.73,2765.78,600.00,611.68,43.03,0000 0000 0000 0000 000000
2017-11-07 11:45:55,0.16,2.89,0.00,13.33,16.96,20.46,14.41,48.55,1009.35,2068.08,2555.91,2427.00,2763.71,600.09,611.85,43.08,0000 0000 0000 0000 000000
2017-11-07 11:50:56,0.17,2.90,0.00,13.31,16.94,20.42,14.44,48.62,1009.30,2068.31,2554.16,2425.47,2761.84,600.22,611.99,43.13,0000 0000 0000 0000 000000
2017-11-07 11:55:57,0.16,2.90,0.00,13.28,16.92,20.43,14.41,48.52,1009.33,2068.65,2552.29,2424.05,2760.07,599.87,611.78,43.18,0000 0000 0000 0000 000000
2017-11-07 12:00:58,0.16,2.91,0.00,13.28,16.89,20.41,14.49,48.60,1009.37,2068.93,2550.66,2422.72,2758.41,600.49,612.36,43.23,0000 0000 0000 0000 000000
2017-11-07 12:05:59,0.12,2.92,0.00,13.25,16.88,20.42,14.40,48.51,1009.30,2068.97,2548.89,2421.28,2756.67,599.94,611.78,43.29,0000 0000 0000 0000 000000
2017-11-07 12:11:00,0.10,2.92,0.00,13.23,16.86,20.40,14.45,48.41,1009.30,2068.99,2547.47,2420.15,2755.36,600.18,612.12,43.34,0000 0000 0000 0000 000000
2017-11-07 12:16:02,0.11,2.93,0.00,13.23,16.84,20.33,14.44,48.42,1009.32,2068.99,2545.97,2418.98,2753.84,600.02,611.91,43.39,0000 0000 0000 0000 000000
2017-11-07 12:21:03,0.13,2.93,0.00,13.23,16.82,20.36,14.40,48.54,1009.30,2068.99,2544.42,2417.61,2752.29,600.32,612.32,43.44,0000 0000 0000 0000 000000
2017-11-07 12:26:04,0.09,2.94,0.00,13.20,16.80,20.33,14.46,48.52,1009.32,2068.99,2543.02,2416.61,2750.99,599.98,612.14,43.49,0000 0000 0000 0000 000000
2017-11-07 12:31:05,0.13,2.95,0.00,13.19,16.79,20.27,14.39,48.61,1009.30,2069.01,2541.38,2415.44,2749.60,600.14,612.16,43.54,0000 0000 0000 0000 000000
2017-11-07 12:36:07,0.14,2.95,0.00,13.18,16.77,20.24,14.35,48.60,1009.35,2069.01,2539.58,2413.78,2747.72,600.10,612.22,43.59,0000 0000 0000 0000 000000
2017-11-07 12:41:08,0.12,2.96,0.00,13.18,16.74,20.28,14.36,48.51,1009.57,2069.05,2537.96,2412.43,2746.12,599.73,611.88,43.64,0000 0000 0000 0000 000000
2017-11-07 12:46:09,0.10,2.97,0.00,13.15,16.73,20.18,14.42,48.42,1009.66,2069.07,2536.56,2411.43,2744.70,600.28,612.47,43.69,0000 0000 0000 0000 000000
2017-11-07 12:51:11,0.17,2.97,0.00,13.17,16.72,20.19,14.30,48.42,1009.71,2069.31,2534.81,2410.15,2743.21,599.86,612.17,43.74,0000 0000 0000 0000 000000
2017-11-07 12:56:12,0.15,2.98,0.00,13.16,16.69,20.18,14.38,48.29,1009.79,2069.62,2533.11,2408.74,2741.50,600.07,612.43,43.79,0000 0000 0000 0000 000000